Regional Weather Roundup
Issued by NWS

Home | Current Version | Previous Version | Graphics & Text | Print | Product List | Glossary On
Versions: 1 2 3 4 5 6 7 8 9 10 11 12 13 14 15 16 17 18 19 20 21 22 23 24 25 26 27 28 29 30 31 32 33 34 35 36 37 38 39 40 41 42 43 44 45 46 47 48 49 50
000
ASUS44 KMEG 261100
RWRTN
TENNESSEE HOURLY STATE WEATHER ROUNDUP
NATIONAL WEATHER SERVICE MEMPHIS TN
500 AM CST MON JAN 26 2015

TNZ002-004-019-021-049-052-054-088>092-261200-
WEST TENNESSEE

CITY           SKY/WX    TMP DP  RH WIND       PRES   REMARKS
MEMPHIS INTL   CLOUDY    39  31  72 NW12G20   30.05R WCI  32
NWS MEMPHIS      N/A     38 N/A N/A MISG        N/A
JACKSON        CLOUDY    35  29  78 N17G23    30.01R WCI  25
DYERSBURG      CLOUDY    34  19  55 N13G23    30.05R WCI  25
UNION CITY     CLOUDY    30  28  93 NW12      30.01R WCI  21
PARIS          CLOUDY    30  27  86 N13       29.98R WCI  20
LEXINGTON      CLOUDY    34  28  80 NW12      29.95R WCI  25
SAVANNAH       CLOUDY    36  30  80 NW13      29.97R WCI  27
$$

TNZ008-025-027-028-033-062-065-066-261200-
NORTH MIDDLE TENNESSEE

CITY           SKY/WX    TMP DP  RH WIND       PRES   REMARKS
NASHVILLE      CLOUDY    34  31  88 NW15G26   29.90R WCI  24
CLARKSVILLE    CLOUDY    33  29  85 NW18G30   29.93R WCI  22
COOKEVILLE     CLOUDY    37  37 100 NW10      29.77R WCI  30
CROSSVILLE     MIX PCPN  37  34  89 NW9       29.73R WCI  30
$$

TNZ061-075-076-078-094-096-097-261200-
SOUTH MIDDLE TENNESSEE

CITY           SKY/WX    TMP DP  RH WIND       PRES   REMARKS
FAYETTEVILLE   CLOUDY    36  36 100 MISG      29.84R
TULLAHOMA      CLOUDY    36  34  93 NW15      29.82R WCI  26
WINCHESTER     CLOUDY    37  36  93 NW12      29.82R WCI  30
SHELBYVILLE    CLOUDY    36  36 100 NW18      29.86R WCI  25
$$

TNZ017-018-042-046-047-261200-
NORTHEAST TENNESSEE

CITY           SKY/WX    TMP DP  RH WIND       PRES   REMARKS
TRI CITIES     LGT RAIN  40  39  97 SW3       29.63S
ELIZABETHTON   LGT RAIN  37  37 100 W3        29.63S
$$

TNZ012-013-036-069-073-074-261200-
CENTRAL EAST TENNESSEE

CITY           SKY/WX    TMP DP  RH WIND       PRES   REMARKS
KNOXVILLE      CLOUDY    40  37  89 W7        29.72R
OAK RIDGE      CLOUDY    41  37  86 SW7       29.72R
GATLINBURG     CLOUDY    39  36  87 W8        29.69R WCI  34
$$

TNZ083-085-099-261200-
SOUTHEAST TENNESSEE

CITY           SKY/WX    TMP DP  RH WIND       PRES   REMARKS
CHATTANOOGA    MOCLDY    45  37  73 NW12      29.77R
$$

SKY/WX REPORTED AS FAIR MEANS FEW OR NO CLOUDS BELOW
12 THOUSAND FEET.



USA.gov is the U.S. government's official web portal to all federal, state and local government web resources and services.